Wind_Speed
43 43 47 52 55 55 53 50 47 44 38 35 36 37 36 35 34 33 30 26 23 23 27 28 29 32 33 32 29 26 25 28 30 29 29 29 29 29 29 30 31 31 29 25 26 31 34 33 31 30 29 28 29 29 29 29 28 27 26 26 26 26 26 25 25 26 25 24 23 23 23 22 22 22 23 23 23 23 23 23 24 24 23 23 23 24
43 46 53 55 54 52 50 48 46 44 40 34 32 33 33 33 35 32 30 29 26 27 28 27 29 32 33 33 31 29 29 31 32 31 30 30 30 30 30 30 30 30 30 28 27 29 35 36 34 33 32 31 31 30 30 30 29 28 28 26 26 26 27 26 26 26 25 24 23 23 22 22 23 23 24 24 24 24 25 25 25 25 25 24 23 24
45 52 56 53 51 50 48 47 46 43 40 34 29 29 30 29 28 27 28 29 28 30 30 28 32 35 34 34 33 33 34 33 32 32 31 30 31 32 31 29 29 30 30 31 29 28 32 36 37 36 35 34 32 32 31 31 31 31 30 28 27 27 27 26 26 25 25 24 24 24 23 24 24 25 25 25 26 27 27 26 26 25 25 24 24 24
50 56 57 51 49 50 48 47 45 43 41 38 32 29 30 28 24 25 27 28 28 29 28 28 32 34 33 34 37 36 36 34 31 32 33 31 31 32 32 31 31 32 32 32 32 30 30 34 38 38 37 36 35 34 34 33 32 32 31 29 28 28 28 27 26 25 25 25 25 25 25 26 26 26 27 27 28 28 27 26 25 25 25 24 24 24
55 54 51 50 50 50 49 47 46 43 42 40 37 33 31 29 27 25 24 25 27 27 27 26 29 37 39 39 42 40 38 39 36 34 34 32 31 31 32 33 33 33 33 33 33 32 30 31 35 39 39 38 38 37 36 35 34 32 31 30 30 29 29 28 27 26 26 27 27 27 28 28 28 28 28 29 28 27 26 25 24 24 25 25 25 24
56 52 47 50 52 51 48 48 48 46 43 41 42 40 34 30 29 28 23 21 22 24 28 25 20 29 37 38 40 38 36 35 32 32 32 29 29 30 31 32 32 32 32 33 33 31 31 30 31 36 39 40 39 39 37 36 35 34 33 32 32 31 30 29 29 29 29 29 29 30 30 30 30 29 29 29 28 27 27 27 26 26 26 26 26 26
53 51 47 47 50 50 47 47 49 48 44 43 46 44 38 34 31 31 27 19 18 19 22 24 19 20 28 34 36 33 33 33 31 32 32 29 28 29 29 28 28 28 28 30 31 30 30 29 28 31 36 39 40 39 38 38 37 36 35 35 34 32 31 31 31 31 31 31 31 32 32 31 31 30 29 29 29 29 29 29 30 30 30 29 29 28
52 53 50 46 48 50 50 51 52 49 46 46 47 41 39 38 32 31 30 21 18 18 18 22 23 23 32 40 41 39 38 38 37 36 33 30 29 29 28 27 26 24 24 25 28 28 27 27 26 26 29 33 36 38 39 40 39 38 37 36 35 34 33 32 32 33 33 33 33 33 33 32 32 31 30 30 31 32 32 32 32 32 33 32 31 31
57 58 57 52 49 52 56 57 52 48 46 45 41 37 37 39 35 32 28 22 19 18 19 23 22 18 27 37 39 40 42 41 39 36 33 31 30 29 28 26 24 22 21 22 24 26 25 25 25 25 26 28 31 34 38 41 41 40 39 38 38 36 35 34 34 34 34 34 34 34 34 33 32 32 31 32 33 33 34 35 34 34 35 34 34 33
51 55 58 55 51 52 54 52 48 45 44 41 35 35 36 36 39 35 27 24 18 14 22 27 24 16 21 33 35 37 41 40 37 34 32 32 30 30 28 26 23 21 20 21 22 24 25 25 26 26 27 28 30 32 36 40 42 42 42 41 40 39 37 35 35 36 35 35 36 35 35 34 33 32 33 34 34 34 35 35 35 35 36 35 35 35
46 48 51 50 50 51 49 46 46 44 41 38 32 32 35 34 38 34 29 26 14 13 26 30 29 22 16 23 27 35 43 41 37 34 31 30 28 26 23 21 21 21 21 21 21 24 25 27 28 28 29 30 31 33 35 38 42 44 44 43 42 40 38 37 36 36 36 36 36 36 35 34 33 33 33 34 34 34 35 35 34 35 35 36 35 35
45 43 44 49 50 49 46 44 44 42 41 39 34 32 30 27 28 24 23 22 10 12 22 25 27 25 20 19 14 16 25 27 27 26 23 23 23 22 21 19 18 19 21 21 21 24 25 28 30 31 32 31 32 33 34 37 40 43 45 44 43 42 40 40 38 37 36 36 36 35 35 34 33 33 33 33 33 33 33 33 33 34 34 34 34 34
45 44 44 48 50 48 45 42 41 42 43 42 39 36 24 13 13 13 11 12 11 10 9 10 15 21 33 42 30 19 21 21 21 21 21 25 26 26 26 23 20 17 17 19 19 21 24 27 29 31 31 30 30 30 29 32 36 41 44 45 45 43 41 41 40 39 38 37 36 35 34 34 33 34 34 33 32 32 32 32 32 32 32 32 32 32
38 40 45 46 47 48 47 45 44 44 47 48 47 45 31 11 5 9 7 4 8 10 7 9 12 15 31 43 41 38 36 35 36 34 31 31 29 28 27 24 21 18 17 18 19 21 22 24 27 29 29 28 27 27 26 28 32 37 42 46 46 44 41 41 41 41 40 39 37 35 35 34 34 34 34 33 32 32 32 32 31 31 31 30 29 29
30 26 43 53 50 51 52 51 50 49 50 52 52 50 43 25 9 8 8 6 6 6 8 12 10 13 23 27 29 27 24 24 26 25 22 22 23 23 22 20 16 14 16 18 21 24 25 26 27 28 28 27 28 28 28 28 29 33 39 44 47 44 41 41 41 41 41 40 37 36 35 34 34 34 34 33 32 32 33 33 32 31 30 29 27 26
32 20 36 54 54 54 54 52 52 49 46 48 50 47 44 36 23 12 10 15 12 3 7 15 17 25 30 31 30 21 16 14 15 18 21 21 22 21 20 16 13 13 16 17 20 23 26 27 28 28 28 28 28 29 30 30 29 31 34 40 46 45 42 41 42 42 41 40 38 37 36 34 34 33 33 33 32 33 33 33 33 31 30 29 27 26
28 19 26 46 52 51 52 51 52 49 44 45 47 45 43 39 32 18 8 10 11 4 8 15 23 35 35 36 38 33 30 27 24 30 33 29 27 26 26 23 20 22 22 20 19 22 25 28 28 29 28 28 28 27 27 27 28 29 30 35 42 46 45 44 44 43 41 40 39 38 37 35 34 34 34 33 32 32 33 34 34 32 31 30 29 29
21 17 24 42 48 48 49 51 53 52 50 47 47 49 43 32 26 20 7 3 5 4 8 15 27 34 27 27 31 27 29 28 26 29 32 34 33 31 32 29 24 22 18 17 18 20 24 27 29 30 29 28 28 27 26 25 26 27 27 30 36 43 47 47 46 45 43 43 41 40 39 38 37 36 35 35 33 33 34 34 34 34 33 32 32 32
19 13 22 40 45 44 49 51 49 49 49 49 51 53 44 27 20 23 14 5 7 5 5 12 24 29 32 36 28 16 13 10 9 14 19 22 23 21 23 21 20 20 19 20 21 21 22 25 27 30 30 30 29 27 27 25 25 26 25 26 30 37 44 48 49 48 47 46 45 44 43 41 40 39 38 36 35 35 34 34 34 34 35 35 35 35
28 13 16 37 43 42 48 50 47 47 43 43 46 48 46 33 25 30 26 15 10 7 6 9 11 21 41 51 42 32 25 16 13 15 17 20 24 26 24 21 23 25 25 23 22 20 21 21 23 26 27 27 26 25 25 25 25 25 24 25 27 31 37 43 47 49 50 49 48 48 47 45 44 42 40 39 38 37 36 35 35 36 36 37 38 38
38 21 14 29 40 41 45 49 51 52 46 43 44 46 47 39 27 29 31 24 12 4 4 5 6 22 38 37 33 35 34 30 29 31 31 30 31 35 33 29 26 23 20 18 17 17 18 18 20 22 24 26 26 26 25 25 25 25 24 25 26 28 31 35 41 46 49 50 50 50 49 48 46 45 43 42 41 40 39 38 38 38 39 40 40 40
42 33 21 24 32 38 45 50 55 56 51 50 49 48 49 42 31 21 17 22 21 11 8 5 7 27 37 27 26 28 26 26 25 25 27 25 26 32 32 25 18 14 14 14 15 15 15 16 17 19 22 24 25 25 25 25 25 25 25 25 26 27 28 30 35 39 44 48 50 51 51 49 48 47 46 45 44 43 41 41 40 40 41 42 42 42
44 38 28 27 30 35 39 43 48 50 51 52 47 45 46 40 37 26 14 20 27 22 21 12 9 31 41 29 27 25 20 20 20 21 25 23 22 24 22 19 15 13 14 14 13 13 13 15 16 18 20 21 22 23 24 25 25 25 26 26 26 26 26 28 31 34 38 42 45 47 49 49 49 48 48 47 46 44 43 42 41 41 42 42 43 43
40 35 28 25 29 34 35 38 45 47 47 48 43 43 44 40 42 39 30 29 27 25 28 14 9 36 48 37 35 33 28 28 27 27 28 25 22 18 17 19 17 15 15 13 12 12 13 15 15 16 18 20 22 24 25 26 27 27 28 27 28 27 26 27 28 29 33 35 37 39 41 43 44 45 46 46 45 44 43 42 42 42 42 42 42 43
36 33 28 18 13 17 21 24 32 38 43 46 45 45 45 44 44 41 38 34 26 31 37 17 12 41 48 38 40 38 33 33 28 27 29 26 24 21 20 23 22 19 17 15 16 17 18 18 17 17 18 18 21 23 24 26 26 27 28 28 28 29 28 28 26 26 27 29 31 33 33 35 36 37 40 41 42 43 43 43 43 43 43 43 43 43
37 37 34 22 11 9 13 17 27 40 46 48 48 49 49 48 48 46 42 34 25 33 40 27 28 49 47 37 40 35 30 29 24 24 29 28 27 27 27 27 26 24 22 22 23 23 23 21 20 20 21 21 22 23 23 24 24 24 26 26 28 28 28 28 26 25 24 24 26 28 30 32 32 33 34 35 38 39 41 42 42 43 43 43 43 44
37 40 43 39 31 27 26 27 33 43 47 46 47 51 53 51 52 50 42 36 34 35 35 35 43 54 53 49 46 37 29 27 25 27 31 33 33 32 30 29 27 27 28 29 28 26 24 24 23 23 23 23 23 22 22 23 23 24 25 26 26 27 27 27 25 25 24 23 24 26 28 30 32 33 34 34 36 37 39 40 41 42 43 43 44 45
38 42 45 47 46 43 37 29 26 34 43 50 53 55 56 52 50 49 45 45 47 35 28 38 47 52 60 62 55 47 40 36 38 40 42 43 42 38 37 36 32 31 32 31 27 24 24 25 26 26 24 22 21 21 22 23 24 24 24 24 24 24 24 25 25 25 24 24 24 24 26 28 29 31 32 33 34 35 36 38 38 40 41 41 43 43
39 41 45 48 50 51 46 36 29 29 37 48 55 56 57 54 50 52 53 55 51 39 37 48 51 53 63 65 59 58 55 51 52 52 50 48 47 45 45 43 34 30 31 28 24 23 24 26 27 26 24 21 20 22 23 24 24 24 23 23 22 22 22 22 22 23 23 24 24 24 25 26 27 28 29 29 30 31 32 33 34 35 36 37 38 39
38 41 43 44 48 52 49 42 35 31 32 40 48 53 55 55 54 55 56 57 52 46 50 56 54 59 68 66 62 61 58 55 55 54 53 53 52 50 48 42 32 29 31 29 25 24 25 25 26 25 24 23 23 24 25 25 24 24 23 23 23 22 22 22 22 22 22 23 23 24 24 25 25 26 26 27 27 28 28 29 30 31 32 33 33 34
38 40 39 41 44 47 50 48 40 34 33 35 43 50 52 52 53 55 56 57 55 52 57 60 61 66 69 66 63 62 59 58 55 53 53 52 50 49 46 40 34 34 35 33 29 27 25 24 25 25 25 27 27 28 27 26 26 25 24 24 24 24 23 23 23 22 22 22 22 23 23 23 24 24 24 25 25 25 26 27 28 29 29 30 31 32
37 38 38 39 38 41 48 50 45 41 35 33 38 45 49 51 53 56 60 62 61 61 62 63 64 66 65 63 64 62 61 61 59 57 55 50 48 48 46 43 40 38 36 33 29 26 24 24 25 26 28 30 30 30 29 29 28 27 27 27 25 25 24 23 23 23 23 23 22 22 23 22 22 22 22 23 23 24 25 25 26 27 28 29 29 30
38 37 37 34 32 39 46 47 51 45 27 25 41 48 50 55 57 58 62 64 64 64 62 61 60 58 55 57 60 59 59 60 60 57 53 48 45 46 47 48 45 40 36 32 29 27 25 25 25 28 31 32 32 32 31 31 30 29 29 28 27 26 25 24 23 23 23 23 22 22 22 22 22 22 22 23 23 23 24 24 25 26 27 28 29 29
32 35 35 30 27 33 37 40 44 31 16 29 54 58 55 57 57 56 59 60 61 61 59 58 57 54 52 55 58 58 57 57 55 54 50 47 46 44 44 44 43 38 34 32 31 28 26 26 28 31 33 33 34 35 34 34 34 32 32 30 28 28 26 25 25 24 24 24 23 23 23 23 23 22 22 22 21 21 22 23 24 25 25 26 27 27
21 25 28 28 26 25 27 30 24 15 25 49 58 55 54 55 53 54 55 56 57 58 58 58 57 56 56 58 58 57 56 55 53 52 50 47 47 45 41 40 38 34 31 30 30 27 25 28 31 33 34 35 36 37 37 37 37 36 35 33 30 29 28 28 27 26 26 26 25 25 24 24 23 21 21 21 21 22 23 24 25 25 25 25 25 25
20 19 19 23 25 20 18 22 14 12 34 50 47 44 48 47 47 52 54 58 61 59 59 59 57 56 56 55 55 56 57 56 55 55 53 49 47 45 42 40 35 30 28 27 25 24 25 28 31 31 33 35 37 38 39 40 40 40 39 36 34 32 31 30 29 28 28 28 27 27 26 25 24 23 23 23 24 25 26 26 25 24 23 21 20 20
26 24 21 19 20 18 14 18 17 14 22 35 41 44 46 47 52 55 57 64 65 59 58 57 54 54 53 52 54 57 57 58 59 58 55 51 48 47 45 40 32 27 25 24 23 25 27 29 30 30 32 35 38 38 40 42 43 43 41 39 38 36 34 33 32 31 30 29 29 28 27 27 26 25 25 25 26 26 25 25 24 22 20 18 16 16
29 29 28 21 17 18 16 15 14 8 12 29 43 49 50 51 53 52 55 62 62 55 56 57 55 54 52 51 54 57 56 60 63 60 56 52 51 50 46 39 32 27 24 24 25 28 30 31 31 31 32 36 38 38 40 42 42 41 41 40 39 38 38 38 37 36 34 31 30 30 28 27 26 26 26 26 25 25 24 23 23 22 20 19 19 20
28 29 31 27 21 20 17 12 7 6 16 32 41 46 47 44 41 40 42 51 59 55 51 54 55 54 51 49 51 51 52 58 62 59 55 51 48 46 43 37 32 27 25 27 29 30 31 32 32 33 35 39 40 40 40 40 38 37 38 37 35 35 35 35 36 38 37 35 34 32 30 28 28 27 26 26 25 25 24 24 24 22 21 20 22 24
25 27 29 28 28 29 26 20 14 14 22 31 34 36 37 36 33 27 24 39 58 55 48 51 54 53 51 49 49 50 53 57 58 56 54 49 42 40 39 37 33 29 27 28 30 30 31 32 34 37 40 41 41 41 41 40 37 35 34 33 31 29 28 28 29 32 35 37 37 36 33 30 30 29 28 27 27 25 25 24 24 24 23 23 23 24
25 28 30 31 33 33 30 25 22 25 31 34 32 28 26 27 32 31 28 46 57 49 43 47 50 48 46 43 45 49 51 52 51 52 52 47 41 39 39 38 35 33 32 32 32 31 32 33 36 40 42 42 42 42 41 40 38 35 33 31 28 25 24 24 25 26 29 33 35 36 35 32 31 30 29 28 27 26 25 25 25 25 25 24 23 23
24 24 24 29 32 32 32 28 23 28 39 40 36 31 23 26 36 38 43 52 53 47 45 45 44 40 32 30 36 43 45 42 39 40 44 44 40 38 38 37 37 36 36 35 34 32 32 32 35 39 41 42 42 40 38 37 36 34 33 29 24 22 22 23 23 24 25 26 29 31 33 31 30 30 28 26 25 25 25 25 25 25 25 24 23 23
26 23 22 27 29 26 27 23 15 23 40 42 38 36 34 35 40 44 48 49 49 51 50 48 47 42 35 36 42 43 41 35 26 25 33 36 35 35 36 37 37 37 37 36 32 30 29 30 34 38 40 39 37 35 34 34 34 33 30 25 22 22 23 22 21 21 21 22 24 27 30 30 29 27 27 26 26 26 26 26 25 25 26 26 26 26
29 27 25 27 27 23 24 23 22 34 48 48 43 43 41 42 46 47 47 48 50 51 49 48 47 45 42 43 43 40 40 35 28 28 31 30 30 32 35 36 36 36 36 33 30 29 31 34 36 37 37 35 32 30 29 29 29 29 26 24 24 23 22 20 19 18 18 18 21 25 29 29 28 27 27 27 27 27 26 26 26 27 27 28 28 28
35 35 32 33 36 34 32 33 37 43 49 50 51 49 41 38 42 45 47 49 49 49 49 48 46 43 41 39 38 39 39 33 29 31 32 31 30 31 34 36 36 35 33 29 27 30 34 37 38 35 32 31 28 25 24 24 25 25 24 25 25 23 21 20 18 18 17 17 19 23 27 29 29 29 29 28 27 26 26 26 27 28 28 28 28 27
37 38 37 38 40 41 41 42 42 44 47 50 52 50 43 39 43 47 49 51 51 48 47 48 46 43 39 38 38 36 31 25 24 27 30 33 34 33 34 37 36 34 32 29 30 33 36 38 37 34 32 30 27 25 24 23 23 24 25 26 25 23 22 20 19 19 18 18 19 22 25 28 29 28 27 27 26 26 26 26 26 26 25 25 25 24
36 36 37 38 39 40 42 43 43 46 51 52 50 50 48 46 47 50 51 54 53 49 46 45 44 39 35 34 33 29 25 25 27 28 29 32 34 34 35 36 35 34 32 31 33 35 34 35 35 34 33 31 28 26 26 25 26 27 26 27 25 23 22 21 20 20 19 19 20 22 24 26 26 26 26 26 25 25 24 24 23 23 22 22 22 23
40 39 40 39 41 43 44 46 47 49 53 54 51 51 51 49 49 51 53 54 53 49 47 44 41 38 34 28 25 26 27 28 29 29 26 25 27 31 33 32 31 31 31 31 31 31 30 31 32 32 32 31 29 28 28 28 28 27 27 27 26 24 24 22 21 21 20 20 21 22 23 25 25 25 25 24 23 23 22 22 22 22 22 22 22 22
43 44 44 42 43 46 46 47 50 51 54 56 55 52 51 51 51 50 50 52 51 49 48 45 41 39 34 27 25 29 30 29 28 26 21 19 20 24 26 26 27 27 28 28 27 27 28 29 29 30 31 30 30 29 29 29 28 27 27 27 26 26 25 24 24 24 23 23 23 23 24 24 24 23 23 22 22 22 21 21 21 21 21 21 20 20
45 46 47 44 45 46 48 51 54 54 57 60 60 56 54 54 52 49 47 47 47 47 48 47 42 37 32 28 27 29 30 29 27 23 21 20 20 20 22 24 26 27 28 28 28 30 31 31 31 31 31 30 30 30 29 29 28 27 27 27 27 27 26 26 26 26 25 25 24 23 23 23 22 22 22 21 21 21 21 20 20 20 19 19 19 19
51 51 50 49 50 51 54 59 62 61 62 63 59 57 58 58 54 48 44 43 45 48 51 51 45 36 32 31 30 31 33 32 28 26 26 26 24 24 26 27 27 29 30 31 33 33 33 32 32 32 31 30 30 30 30 30 29 28 28 27 27 27 27 27 27 27 26 25 24 22 22 22 22 22 21 21 21 20 19 19 18 18 18 18 18 18
Wind_Direction
209 207 208 211 214 214 215 216 217 220 224 225 227 230 232 232 234 238 242 247 246 246 250 253 259 264 265 265 265 263 261 259 259 258 257 257 257 258 259 262 266 268 272 273 261 251 251 253 251 249 248 248 248 249 250 251 252 252 250 249 250 253 253 251 251 253 254 254 256 258 262 266 268 267 266 267 269 270 271 272 271 272 272 273 275 278
209 211 215 217 217 216 215 216 217 219 222 224 227 231 234 237 239 241 242 242 242 244 248 253 258 262 265 268 268 267 264 260 258 259 261 261 260 260 259 259 264 269 271 270 265 254 249 250 251 250 249 249 249 249 251 252 254 253 252 251 250 252 254 255 255 255 256 256 256 257 259 261 262 263 264 264 265 265 264 265 267 270 271 273 274 275
208 216 220 219 218 217 215 216 217 218 219 220 224 228 230 235 239 240 238 237 239 245 250 255 260 263 265 267 267 266 265 265 262 261 267 269 264 260 259 259 260 265 269 268 266 260 252 249 250 251 251 250 250 250 251 252 253 252 252 251 250 251 254 256 257 257 259 260 259 257 256 257 258 259 261 261 261 260 260 262 266 270 273 275 276 275
209 219 221 217 216 216 215 215 216 217 218 218 220 222 224 225 227 228 228 230 236 244 250 254 259 261 261 262 264 265 268 271 269 265 271 273 265 258 257 258 257 257 261 264 264 262 257 251 249 251 251 251 251 251 250 251 252 253 254 253 252 252 254 256 258 259 260 261 260 259 258 258 258 258 259 259 260 262 265 268 271 275 277 277 276 275
215 222 220 215 216 217 215 214 213 214 217 218 218 220 221 221 222 226 227 232 237 242 247 251 260 261 258 260 264 267 270 272 271 268 271 272 265 259 257 256 256 255 256 259 261 261 260 255 251 250 251 252 252 251 251 252 253 254 255 256 255 254 253 255 257 258 258 258 259 260 260 260 261 262 263 265 268 272 275 276 277 278 277 275 274 273
220 222 220 216 216 215 213 214 213 212 215 218 219 219 221 223 225 225 225 233 234 236 241 242 258 266 260 260 265 268 268 267 266 265 270 275 269 264 262 260 260 259 258 257 258 259 259 259 256 251 249 251 252 252 253 253 254 255 254 254 254 253 253 254 255 256 256 258 259 260 261 263 265 267 269 272 274 275 276 276 276 274 272 272 272 271
219 221 223 218 214 212 211 213 214 212 212 217 221 219 218 223 226 222 220 226 228 233 241 234 239 264 264 259 261 264 264 264 265 265 270 278 275 271 269 269 268 266 262 258 256 256 256 258 260 255 251 252 254 255 256 256 256 255 255 254 254 254 254 254 254 254 255 257 259 261 263 265 268 270 273 274 274 274 273 273 273 273 272 272 273 273
218 219 221 219 214 210 209 213 215 211 210 218 222 217 217 221 224 222 219 225 238 245 249 237 236 260 268 263 259 260 263 267 268 267 271 280 281 278 276 274 272 270 267 262 258 256 255 256 259 260 258 257 259 259 258 257 257 257 257 257 256 255 254 253 254 254 255 257 258 261 263 265 267 270 273 274 273 272 271 270 270 272 273 274 274 274
219 217 218 217 212 209 213 216 214 209 210 219 221 217 219 222 223 222 219 229 247 252 250 239 235 255 268 265 264 264 263 264 265 266 271 281 285 280 277 277 275 272 268 262 258 255 254 255 258 262 264 262 260 259 257 257 258 258 257 257 257 256 254 253 253 254 255 256 258 259 261 264 267 270 271 271 270 270 270 269 269 270 271 273 274 275
217 219 221 218 210 211 217 216 212 210 210 216 219 219 220 223 226 224 224 237 247 249 248 241 231 241 267 266 264 265 266 266 265 265 267 275 280 277 276 278 279 274 265 258 255 252 251 252 255 259 261 260 258 255 254 254 254 254 255 255 256 256 256 255 253 253 254 255 257 258 261 264 267 269 269 269 269 269 269 269 270 271 271 272 273 275
216 220 221 217 216 220 220 214 213 213 210 211 214 217 220 223 227 224 226 237 247 250 248 243 235 234 263 271 262 263 266 269 269 268 268 270 273 274 276 280 280 278 268 256 249 246 247 249 251 255 258 259 259 257 254 251 249 249 250 252 254 255 256 256 255 255 254 255 256 259 261 264 266 268 268 269 269 269 269 270 271 272 272 272 272 272
216 217 215 216 221 223 218 212 213 213 209 210 209 209 211 214 219 221 224 229 235 248 245 242 236 229 238 253 258 265 267 269 272 270 266 269 275 276 277 277 278 279 273 260 248 243 243 246 249 253 256 258 260 260 258 255 251 248 247 248 251 254 255 257 257 257 257 257 257 259 261 264 266 267 268 268 269 269 269 270 270 270 271 271 271 271
216 215 214 217 219 216 211 204 204 208 209 211 210 204 196 189 203 210 212 221 227 236 233 213 207 217 238 247 247 246 249 256 265 266 265 273 282 282 279 277 273 272 272 265 255 247 243 245 249 251 254 256 258 259 260 257 254 251 248 246 248 251 254 257 258 258 259 259 259 260 261 263 266 267 268 269 269 269 268 268 268 269 270 270 271 272
213 216 213 211 211 212 210 200 193 199 204 208 209 202 194 178 179 202 196 217 231 225 206 172 179 223 248 253 254 251 252 258 263 265 270 275 278 278 280 281 275 264 261 258 252 247 244 246 250 252 252 255 257 259 260 258 255 253 249 246 246 248 252 255 257 258 258 259 259 260 261 263 265 267 270 270 270 269 268 268 268 268 269 269 271 272
199 208 209 209 210 209 210 210 207 204 203 208 210 205 202 196 186 198 193 201 219 209 195 177 185 238 244 251 258 257 258 262 260 261 268 273 272 272 277 282 278 264 255 251 246 245 246 248 250 252 253 256 259 261 261 260 257 253 250 246 244 245 249 253 255 256 257 258 259 259 260 262 264 267 270 270 270 270 270 270 269 269 270 271 272 273
200 208 208 209 214 212 209 212 214 208 202 206 208 207 207 205 204 204 196 209 213 192 197 194 215 240 242 250 257 259 258 243 236 256 269 270 266 266 270 270 272 274 269 260 250 246 246 247 249 252 255 259 263 265 264 262 260 257 253 248 244 243 245 250 253 255 256 257 257 258 260 262 264 267 270 270 271 271 271 271 270 270 271 272 274 274
207 221 210 203 210 214 211 209 209 207 204 201 200 202 205 205 205 199 183 203 205 225 231 212 234 249 253 260 259 257 257 250 250 264 268 264 258 258 262 264 269 278 276 267 257 248 246 246 249 252 255 260 264 268 269 265 263 262 258 252 245 242 242 246 251 254 255 256 257 259 260 263 265 268 270 271 271 271 271 271 271 272 273 275 277 279
206 221 211 200 205 210 210 209 207 208 209 202 199 201 201 199 201 198 178 132 161 239 245 221 239 250 252 259 261 260 258 255 255 255 252 253 254 256 260 262 263 267 266 265 263 256 252 250 251 254 257 262 266 269 272 270 266 265 263 257 250 244 242 244 248 251 254 256 257 259 261 264 265 267 268 269 269 270 271 272 273 274 275 278 280 282
209 217 204 197 203 205 202 202 200 201 206 206 206 203 197 191 190 189 190 194 192 220 255 228 236 244 242 244 249 250 236 218 210 222 232 248 257 263 262 252 246 253 263 272 272 266 260 256 255 256 258 262 266 268 269 270 268 266 265 263 258 252 247 245 246 249 251 254 257 259 262 264 265 266 267 267 268 268 270 272 274 275 277 279 281 282
212 222 206 193 197 200 198 196 194 192 194 200 202 198 197 201 195 191 197 205 200 205 243 239 229 242 247 248 248 246 236 215 210 233 248 259 267 274 270 253 251 262 270 273 272 267 263 260 259 260 261 263 265 265 265 267 269 269 267 264 262 258 254 251 250 251 252 255 258 261 263 264 265 265 265 266 266 267 269 271 273 274 276 278 279 281
212 220 224 197 192 193 194 195 196 195 189 188 191 191 197 204 199 200 208 208 201 180 226 245 246 247 251 253 253 251 250 249 252 258 261 260 259 262 263 262 261 265 265 264 266 266 265 265 263 261 262 263 264 265 265 267 269 270 269 268 266 263 260 258 256 255 256 257 259 261 263 264 264 263 263 264 265 266 268 270 272 273 274 275 277 279
212 215 225 213 197 192 196 198 200 201 196 194 195 194 198 198 190 193 207 209 211 212 212 215 270 258 255 257 259 259 260 259 258 259 260 256 249 250 257 260 252 250 261 266 266 264 263 263 260 258 259 261 263 265 265 265 265 266 267 268 269 268 266 264 261 259 258 258 258 260 262 263 263 262 262 264 265 266 268 270 272 272 273 274 276 277
215 215 219 221 211 199 199 200 201 203 205 205 205 203 203 197 191 192 196 207 212 222 232 238 277 263 256 255 257 256 250 248 249 252 258 262 258 253 250 245 239 253 272 274 268 266 267 267 264 261 259 259 260 260 261 262 263 264 265 266 267 268 268 267 264 262 261 260 260 260 261 261 261 262 262 264 265 267 268 271 271 272 273 274 274 275
215 217 216 218 217 210 205 204 205 206 207 208 206 206 206 201 200 206 209 210 209 215 227 232 265 257 255 253 253 255 254 255 257 258 261 264 259 245 231 238 254 272 277 271 267 275 285 285 281 273 265 260 257 255 255 257 259 262 265 266 267 268 268 267 266 264 263 263 263 263 263 263 263 262 263 264 265 266 268 269 271 272 273 273 273 274
218 217 211 203 209 215 211 207 205 205 206 208 207 207 209 207 206 209 211 213 214 220 221 211 239 251 254 256 255 257 259 259 257 258 262 261 252 244 244 255 267 274 273 266 267 281 293 291 285 277 269 262 258 257 256 256 257 259 261 264 266 268 269 270 270 270 268 267 266 266 267 268 268 267 266 266 266 267 268 269 271 272 273 273 274 275
226 220 214 203 190 199 207 205 203 203 205 208 209 209 210 210 208 207 208 208 214 225 221 213 233 246 250 255 257 257 256 253 246 247 258 260 254 257 264 266 267 268 265 261 268 286 296 290 282 273 267 262 258 257 257 257 257 257 258 260 262 265 268 270 273 275 275 273 271 270 270 270 271 272 271 270 269 269 269 270 271 272 273 274 274 275
226 224 223 218 214 212 210 209 208 206 204 204 207 210 212 212 211 209 208 210 217 225 224 221 234 246 250 251 253 252 249 247 241 243 257 263 262 265 267 264 263 263 262 264 274 288 291 284 277 270 265 261 258 257 256 255 255 255 256 259 262 265 268 270 273 274 275 275 274 272 271 270 270 271 270 270 270 270 270 270 271 272 272 273 273 274
220 223 226 225 227 227 223 220 218 214 210 209 210 212 212 212 210 208 210 218 220 221 228 230 232 243 250 251 250 250 247 247 249 254 260 263 263 263 263 263 264 264 265 272 280 282 277 274 272 271 270 265 258 255 254 254 255 258 261 265 268 270 270 271 272 272 272 272 271 270 270 269 270 270 270 271 271 271 272 273 273 274 274 274 275 275
218 225 229 229 231 232 228 227 227 223 220 217 215 215 214 211 209 210 215 221 221 219 230 236 235 240 251 256 256 255 253 252 255 259 259 260 261 262 263 266 266 263 268 276 276 269 266 267 270 275 276 269 257 252 253 255 259 264 269 272 274 275 275 275 274 273 272 271 271 270 270 270 270 271 272 272 273 274 275 276 277 277 278 278 278 277
219 227 231 230 231 232 228 227 229 229 227 222 219 218 217 214 213 214 219 224 224 225 233 241 242 244 253 259 259 258 259 257 258 260 260 261 263 263 265 266 261 260 271 278 272 263 264 268 272 275 273 266 258 256 259 261 264 267 271 273 275 277 279 280 280 278 276 274 274 273 272 272 272 272 273 274 275 276 277 278 279 280 281 281 280 280
221 227 232 230 229 231 229 227 227 228 229 226 222 220 219 218 216 217 221 226 226 228 235 241 244 247 253 258 257 258 261 260 259 261 261 263 264 264 265 263 260 265 274 277 270 263 263 267 269 270 267 263 260 261 264 266 267 269 271 272 275 276 277 279 280 280 279 277 276 275 274 273 273 273 274 275 276 278 279 280 281 282 283 283 282 282
222 226 231 229 227 230 230 228 227 227 229 227 222 219 217 217 218 219 223 227 227 229 234 237 240 247 252 255 255 256 258 259 260 260 262 264 265 267 267 265 266 270 272 271 266 261 263 266 263 262 261 260 259 261 264 266 267 269 270 271 273 273 273 274 274 274 274 273 272 272 272 273 273 275 277 279 281 282 282 284 284 284 284 284 283 282
220 221 225 221 221 229 231 228 226 224 221 218 221 221 218 218 221 223 226 228 229 230 232 234 241 251 256 256 257 257 257 258 259 260 263 265 266 268 268 267 268 269 268 265 261 260 265 266 259 257 259 258 258 260 262 263 264 265 266 268 269 269 270 270 268 268 267 266 266 267 269 271 274 277 280 282 284 285 286 287 287 287 287 285 284 283
223 224 226 219 217 231 235 227 222 218 211 227 232 231 227 225 223 222 227 231 230 231 234 241 252 260 260 258 260 261 261 263 264 265 266 267 267 269 269 267 267 266 263 261 259 262 264 259 253 254 257 257 257 258 259 260 262 263 263 263 264 266 268 267 266 265 263 264 265 267 269 272 275 278 281 282 285 288 291 293 293 292 291 288 286 284
232 231 235 227 221 234 233 216 210 212 222 231 237 236 232 233 231 230 235 239 237 236 240 246 256 262 259 257 261 263 265 268 268 268 267 265 267 269 269 268 268 265 258 254 256 258 255 252 252 254 255 257 257 257 258 260 261 261 260 260 260 262 264 266 266 265 264 265 266 268 271 274 276 277 279 282 288 292 295 296 295 294 292 288 286 285
241 241 246 235 227 234 220 196 196 231 227 229 235 233 228 228 228 227 234 240 240 240 242 248 258 264 262 262 264 264 265 267 268 268 265 263 265 266 267 270 271 265 255 250 252 253 250 251 255 256 258 258 257 257 259 260 260 259 258 258 259 259 261 263 265 266 266 266 268 270 273 275 276 276 279 282 288 292 294 294 293 292 290 287 285 285
248 249 255 249 239 241 227 207 216 229 222 225 231 231 228 229 228 226 231 241 243 240 241 250 262 266 263 262 262 261 261 264 266 264 260 258 258 260 262 266 267 261 251 246 245 246 247 250 253 256 259 259 258 258 258 258 259 259 259 259 259 259 260 263 265 266 267 267 269 271 272 273 274 275 277 282 285 287 288 289 289 287 284 284 286 290
255 253 253 253 247 248 247 233 224 223 224 228 233 237 239 242 242 236 234 244 250 246 245 253 261 264 264 263 261 258 257 261 263 261 256 253 253 255 258 260 260 256 245 238 239 243 247 252 254 256 258 259 259 259 258 258 260 262 264 263 262 261 261 262 264 265 265 266 268 268 269 270 270 271 274 278 280 282 284 286 284 280 275 278 284 288
253 255 254 251 248 250 254 250 240 241 237 235 239 245 244 241 240 230 227 242 251 248 246 251 255 258 261 261 260 258 255 258 261 260 258 256 253 254 256 256 259 255 241 234 240 246 253 257 256 254 254 256 258 259 261 263 264 265 267 268 267 266 266 265 264 262 261 262 263 265 265 265 266 268 271 274 276 279 282 282 279 272 268 271 278 283
236 242 243 241 242 248 252 256 264 263 249 243 244 246 243 237 228 209 212 245 252 248 245 248 252 256 259 260 261 259 256 258 261 263 265 265 262 259 257 255 256 253 245 244 249 254 258 259 255 252 253 255 257 259 262 264 265 266 268 269 270 272 272 270 267 262 259 258 259 261 261 260 262 265 267 271 275 277 278 277 273 267 265 268 273 278
229 233 234 233 238 244 245 247 257 261 254 247 245 247 246 229 207 195 215 245 251 252 250 250 254 259 262 262 261 260 261 265 269 271 272 272 270 265 259 254 252 251 252 254 256 258 259 257 252 251 253 254 255 256 258 260 263 265 266 268 271 273 271 267 263 259 257 256 255 256 257 256 258 262 265 268 271 272 271 271 268 265 266 269 273 277
223 226 227 228 233 239 240 240 251 259 254 248 248 252 241 206 199 214 238 250 254 258 259 258 260 261 262 263 264 267 273 277 278 276 273 272 271 266 260 253 248 250 254 254 256 261 261 255 250 249 250 251 253 254 256 258 260 261 263 266 268 265 261 259 257 255 254 253 251 250 252 253 255 259 262 263 265 266 265 264 264 264 267 270 272 274
233 228 224 225 229 233 233 231 236 249 249 249 249 244 230 218 226 244 255 257 259 261 260 260 262 263 268 272 272 275 279 280 280 276 273 272 269 263 258 253 249 250 252 254 258 261 254 247 245 246 248 250 252 254 255 255 257 258 260 261 258 255 255 255 255 255 252 248 245 243 246 249 251 255 258 259 260 261 261 262 264 266 270 272 272 272
240 231 228 234 238 229 219 224 236 244 246 250 253 249 243 243 251 257 260 261 263 264 262 265 268 271 275 276 276 277 277 275 275 273 273 274 268 257 251 249 247 247 249 253 258 254 245 243 244 245 247 250 252 253 254 253 253 253 252 251 250 251 254 254 253 252 246 240 236 237 241 245 249 253 257 259 260 260 261 264 268 271 273 275 275 275
243 244 245 248 250 248 245 252 257 255 253 255 257 258 259 258 260 263 265 266 267 267 269 272 274 276 277 278 278 278 277 277 276 271 268 268 265 256 244 240 241 243 246 251 251 243 239 243 246 247 250 253 253 253 253 251 249 246 245 245 247 249 251 251 248 245 240 232 229 232 238 243 248 253 256 257 258 260 263 266 269 272 273 274 274 275
255 259 257 251 252 257 261 264 266 264 260 256 256 259 260 259 261 264 266 266 267 268 269 271 272 274 275 277 278 277 275 274 275 274 269 264 261 253 240 234 235 238 241 243 242 239 241 245 248 251 254 255 254 253 252 250 248 245 243 243 245 246 247 246 243 240 236 231 230 233 239 244 248 251 253 255 257 261 264 268 269 271 273 273 275 276
257 259 254 248 247 251 256 263 267 263 257 253 254 258 259 257 260 261 262 264 266 264 264 266 268 270 273 276 277 272 265 265 272 279 275 261 249 242 233 229 231 236 239 240 241 243 246 246 247 249 252 252 253 252 250 249 246 244 243 242 243 243 243 242 240 238 235 233 233 236 239 243 246 249 252 255 258 261 264 265 267 269 270 272 274 275
258 259 253 247 245 246 254 268 273 267 263 262 261 260 257 255 257 258 259 262 263 261 262 264 264 265 268 272 271 264 260 262 266 271 270 257 239 229 225 224 230 237 241 241 241 242 243 243 243 245 246 248 250 249 248 247 244 243 242 241 240 240 240 240 240 238 236 235 235 238 240 244 247 250 253 255 257 259 261 263 265 268 269 270 272 273
260 259 256 253 250 247 253 267 272 270 269 265 257 252 250 250 253 254 254 256 259 260 262 263 263 266 267 262 258 258 259 257 255 255 258 252 237 227 225 225 229 233 235 237 237 238 240 242 242 242 243 244 245 245 245 244 242 241 239 238 239 239 239 239 239 239 239 239 240 241 243 246 248 250 252 254 257 260 264 267 269 271 272 273 275 276
255 254 254 254 251 246 250 260 266 267 263 255 247 244 246 248 251 253 253 254 258 261 262 263 263 265 262 255 251 250 247 244 244 246 248 245 241 239 238 235 235 236 239 241 243 244 243 241 239 239 239 239 240 240 241 241 241 241 239 238 238 239 239 240 241 241 241 241 240 242 244 245 248 251 254 259 263 265 268 270 272 273 275 276 278 279
250 250 250 250 250 251 257 264 267 265 262 256 250 249 251 252 254 256 255 256 260 261 261 262 262 257 250 248 247 243 240 241 245 251 254 254 253 254 252 249 248 247 247 246 246 245 243 239 237 237 237 237 238 239 241 242 242 241 240 239 238 238 238 239 239 239 239 239 239 241 244 247 252 256 260 263 265 266 268 269 270 273 274 276 278 280
Height
3123 3125 3123 3120 3120 3123 3128 3133 3137 3141 3145 3147 3150 3150 3151 3152 3153 3155 3159 3160 3161 3159 3156 3157 3157 3156 3157 3158 3160 3162 3162 3161 3161 3161 3162 3163 3164 3165 3166 3166 3166 3167 3168 3170 3171 3171 3171 3172 3173 3173 3173 3174 3175 3176 3177 3178 3179 3181 3182 3183 3183 3184 3184 3185 3185 3186 3187 3188 3189 3189 3190 3191 3192 3192 3192 3192 3193 3193 3194 3194 3195 3195 3196 3196 3196 3196
3120 3119 3114 3114 3119 3125 3129 3133 3137 3140 3143 3146 3147 3148 3149 3150 3151 3154 3157 3158 3159 3157 3154 3156 3155 3153 3154 3155 3157 3158 3158 3157 3157 3158 3159 3160 3161 3161 3162 3162 3163 3163 3165 3166 3167 3167 3168 3168 3170 3170 3170 3171 3172 3173 3175 3175 3176 3178 3179 3180 3181 3182 3182 3183 3184 3184 3185 3186 3186 3187 3188 3188 3189 3189 3189 3190 3190 3191 3191 3191 3191 3192 3193 3194 3195 3194
3115 3109 3108 3115 3121 3126 3129 3132 3135 3138 3141 3143 3145 3146 3146 3147 3150 3153 3155 3156 3157 3154 3153 3154 3151 3149 3151 3151 3152 3153 3153 3153 3154 3155 3155 3156 3157 3157 3158 3159 3160 3160 3160 3161 3163 3164 3164 3165 3166 3167 3167 3168 3169 3170 3171 3172 3173 3174 3175 3177 3179 3179 3179 3180 3181 3182 3183 3184 3184 3185 3185 3185 3186 3186 3186 3187 3187 3187 3187 3188 3189 3189 3190 3191 3192 3192
3103 3099 3105 3116 3121 3123 3126 3130 3133 3136 3138 3140 3141 3143 3144 3146 3149 3150 3152 3154 3154 3153 3151 3151 3148 3145 3147 3147 3146 3148 3149 3150 3151 3151 3151 3152 3152 3152 3153 3154 3155 3156 3156 3157 3158 3160 3161 3162 3162 3163 3164 3165 3166 3167 3168 3169 3170 3171 3173 3175 3176 3177 3177 3178 3179 3180 3181 3181 3182 3182 3182 3183 3183 3183 3183 3183 3183 3183 3184 3186 3187 3187 3188 3188 3189 3189
3096 3097 3106 3115 3117 3119 3122 3126 3129 3132 3134 3136 3138 3140 3141 3144 3147 3148 3151 3152 3151 3151 3149 3149 3145 3138 3140 3142 3141 3144 3146 3145 3147 3147 3147 3147 3147 3148 3149 3149 3150 3151 3152 3153 3154 3155 3157 3158 3158 3159 3161 3162 3162 3163 3164 3166 3167 3169 3170 3172 3173 3174 3175 3176 3176 3177 3178 3178 3178 3179 3179 3179 3179 3180 3180 3180 3181 3182 3183 3184 3184 3185 3185 3185 3186 3186
3097 3100 3106 3111 3112 3115 3119 3121 3124 3127 3130 3132 3133 3136 3140 3143 3146 3148 3150 3149 3149 3148 3145 3149 3144 3131 3133 3138 3137 3141 3142 3141 3143 3143 3143 3143 3144 3144 3144 3145 3146 3147 3148 3149 3149 3151 3152 3154 3155 3155 3156 3158 3158 3160 3161 3163 3164 3166 3167 3168 3169 3171 3172 3173 3174 3174 3174 3174 3175 3175 3175 3176 3176 3177 3178 3178 3179 3180 3180 3180 3181 3181 3181 3182 3182 3183
3096 3099 3104 3107 3108 3112 3116 3117 3119 3123 3127 3127 3127 3133 3139 3142 3144 3146 3146 3147 3146 3144 3143 3147 3143 3130 3127 3131 3134 3137 3137 3137 3139 3139 3139 3140 3140 3140 3141 3141 3142 3143 3143 3144 3145 3147 3148 3150 3151 3151 3153 3154 3155 3157 3159 3160 3161 3162 3164 3165 3166 3168 3169 3170 3171 3171 3171 3171 3171 3172 3172 3173 3173 3174 3175 3176 3176 3177 3177 3177 3177 3177 3177 3178 3179 3179
3090 3095 3099 3102 3105 3108 3109 3109 3112 3118 3122 3121 3123 3132 3137 3139 3143 3143 3144 3144 3142 3142 3142 3142 3142 3133 3122 3122 3130 3134 3133 3133 3134 3135 3135 3137 3136 3137 3137 3138 3138 3139 3139 3140 3141 3143 3144 3146 3147 3148 3150 3151 3152 3154 3155 3156 3157 3159 3160 3161 3162 3164 3165 3167 3167 3167 3167 3168 3168 3169 3169 3169 3170 3171 3172 3173 3173 3173 3173 3173 3173 3173 3174 3174 3175 3176
3084 3087 3090 3095 3099 3100 3100 3102 3108 3115 3119 3119 3124 3132 3136 3139 3141 3141 3142 3141 3140 3141 3138 3135 3139 3134 3118 3115 3125 3129 3128 3129 3130 3132 3133 3133 3133 3133 3133 3134 3134 3135 3136 3136 3137 3138 3141 3143 3144 3146 3147 3148 3149 3150 3151 3152 3153 3155 3156 3157 3158 3159 3161 3162 3163 3163 3164 3164 3165 3165 3165 3166 3167 3168 3169 3169 3169 3169 3169 3169 3170 3170 3170 3170 3171 3172
3082 3084 3088 3092 3093 3095 3098 3104 3110 3115 3118 3120 3125 3130 3135 3137 3138 3140 3140 3139 3140 3137 3130 3130 3137 3133 3116 3110 3120 3124 3122 3124 3127 3129 3131 3131 3130 3129 3129 3131 3131 3132 3132 3132 3133 3134 3136 3139 3141 3142 3142 3143 3144 3145 3145 3146 3148 3150 3151 3152 3153 3155 3157 3158 3159 3159 3160 3161 3161 3161 3162 3163 3164 3165 3165 3165 3165 3166 3165 3165 3166 3167 3167 3167 3168 3168
3083 3086 3089 3090 3092 3097 3101 3106 3110 3114 3117 3120 3125 3129 3133 3135 3136 3138 3137 3138 3140 3131 3123 3126 3132 3134 3120 3106 3112 3117 3117 3120 3124 3125 3128 3128 3127 3127 3127 3128 3128 3128 3128 3129 3130 3130 3132 3134 3136 3137 3138 3139 3140 3140 3141 3141 3142 3144 3145 3147 3148 3151 3153 3153 3154 3155 3156 3157 3157 3158 3159 3160 3161 3161 3161 3161 3162 3162 3162 3162 3163 3163 3164 3164 3165 3165
3082 3083 3085 3087 3092 3097 3101 3105 3109 3113 3115 3118 3122 3126 3130 3133 3134 3136 3136 3138 3135 3123 3118 3123 3127 3133 3121 3103 3106 3113 3114 3118 3121 3122 3125 3124 3124 3125 3125 3125 3125 3125 3124 3125 3126 3127 3129 3130 3131 3133 3133 3135 3136 3136 3136 3137 3137 3138 3140 3142 3144 3146 3148 3149 3150 3151 3152 3153 3154 3155 3155 3156 3157 3157 3157 3157 3158 3159 3159 3159 3160 3160 3160 3160 3161 3161
3078 3078 3080 3084 3088 3092 3096 3101 3105 3109 3111 3115 3119 3122 3126 3129 3130 3131 3130 3129 3125 3118 3117 3120 3124 3125 3111 3099 3105 3110 3111 3116 3118 3120 3122 3121 3122 3121 3121 3122 3123 3123 3122 3123 3124 3125 3126 3126 3127 3128 3129 3131 3131 3132 3132 3133 3133 3134 3135 3137 3139 3141 3144 3145 3146 3147 3148 3149 3150 3151 3152 3153 3153 3153 3153 3153 3154 3155 3155 3156 3156 3156 3156 3157 3157 3157
3075 3076 3078 3081 3084 3087 3090 3093 3096 3099 3102 3106 3107 3111 3115 3118 3120 3120 3120 3119 3117 3116 3116 3119 3122 3117 3103 3098 3102 3105 3109 3113 3115 3118 3119 3119 3119 3118 3118 3119 3119 3121 3121 3121 3122 3122 3123 3123 3124 3125 3126 3126 3127 3128 3128 3129 3129 3129 3130 3132 3133 3137 3140 3141 3141 3142 3143 3144 3146 3147 3148 3149 3149 3149 3149 3149 3150 3151 3151 3151 3152 3152 3152 3153 3153 3154
3069 3069 3068 3070 3074 3078 3080 3082 3085 3088 3093 3095 3098 3103 3104 3104 3106 3108 3110 3112 3112 3113 3115 3119 3118 3107 3098 3097 3098 3101 3107 3110 3112 3114 3116 3116 3116 3116 3116 3116 3116 3117 3118 3118 3119 3119 3120 3120 3121 3121 3122 3123 3123 3124 3124 3125 3125 3125 3126 3127 3129 3132 3135 3136 3137 3137 3138 3140 3142 3143 3143 3144 3145 3145 3145 3146 3146 3147 3147 3147 3148 3148 3148 3149 3150 3150
3063 3061 3060 3064 3068 3070 3073 3077 3082 3087 3090 3093 3098 3101 3099 3100 3103 3104 3106 3106 3109 3112 3112 3112 3106 3095 3092 3094 3095 3100 3105 3107 3110 3111 3113 3115 3114 3114 3114 3114 3114 3114 3115 3115 3115 3116 3116 3117 3117 3118 3119 3119 3120 3120 3120 3121 3121 3121 3122 3123 3125 3127 3130 3131 3131 3133 3134 3136 3137 3138 3139 3140 3141 3141 3142 3142 3143 3143 3143 3144 3144 3145 3145 3145 3146 3146
3061 3060 3060 3063 3066 3069 3072 3075 3079 3082 3084 3088 3092 3092 3094 3099 3101 3102 3104 3105 3109 3109 3105 3103 3098 3091 3092 3092 3092 3098 3100 3103 3108 3109 3109 3111 3111 3111 3111 3112 3112 3111 3111 3112 3112 3113 3113 3113 3114 3115 3116 3116 3117 3117 3117 3118 3118 3118 3119 3119 3121 3123 3125 3126 3127 3128 3130 3131 3132 3133 3135 3136 3137 3137 3138 3139 3139 3140 3140 3140 3140 3141 3142 3142 3143 3143
3058 3059 3059 3061 3063 3066 3071 3074 3076 3078 3079 3081 3082 3085 3092 3098 3099 3100 3103 3105 3108 3106 3099 3096 3092 3091 3093 3089 3087 3093 3095 3097 3101 3102 3103 3104 3106 3107 3107 3109 3110 3109 3109 3109 3109 3110 3110 3111 3111 3112 3113 3113 3113 3114 3114 3115 3115 3115 3115 3116 3117 3118 3120 3121 3123 3124 3126 3126 3127 3128 3130 3131 3132 3133 3134 3135 3135 3136 3135 3136 3136 3137 3138 3138 3139 3139
3057 3057 3057 3059 3060 3063 3067 3069 3070 3073 3075 3075 3075 3080 3086 3089 3091 3094 3097 3098 3101 3100 3094 3090 3088 3088 3086 3083 3085 3091 3093 3093 3095 3097 3099 3100 3102 3104 3104 3105 3106 3106 3106 3106 3106 3107 3107 3107 3108 3108 3109 3109 3110 3110 3110 3111 3111 3111 3112 3112 3113 3114 3115 3117 3118 3119 3121 3122 3123 3124 3125 3127 3128 3129 3129 3130 3131 3131 3131 3132 3133 3133 3133 3134 3134 3135
3055 3056 3055 3055 3057 3061 3062 3062 3062 3064 3069 3072 3075 3080 3082 3082 3084 3086 3087 3089 3092 3094 3090 3087 3085 3080 3075 3076 3083 3088 3090 3092 3093 3094 3097 3100 3101 3101 3101 3103 3103 3103 3104 3103 3103 3103 3103 3104 3104 3104 3105 3105 3106 3107 3107 3107 3107 3107 3108 3108 3109 3110 3111 3113 3114 3115 3117 3118 3119 3120 3121 3122 3123 3124 3125 3125 3126 3126 3126 3128 3128 3128 3129 3129 3129 3130
3052 3054 3054 3053 3054 3054 3053 3054 3055 3057 3060 3062 3066 3071 3074 3077 3080 3082 3085 3085 3087 3090 3089 3086 3080 3070 3069 3074 3080 3084 3086 3089 3091 3093 3095 3097 3098 3097 3097 3098 3100 3100 3100 3100 3100 3100 3101 3101 3101 3102 3102 3102 3103 3103 3103 3104 3104 3104 3104 3105 3106 3107 3108 3109 3110 3111 3113 3114 3115 3115 3116 3117 3118 3119 3119 3120 3120 3121 3122 3123 3123 3124 3124 3123 3124 3125
3047 3049 3052 3052 3049 3048 3048 3050 3053 3055 3056 3056 3058 3060 3064 3069 3074 3079 3083 3083 3085 3085 3084 3084 3075 3064 3067 3075 3076 3079 3083 3084 3087 3090 3090 3092 3093 3093 3093 3095 3096 3097 3097 3097 3097 3098 3098 3099 3099 3099 3099 3099 3099 3100 3100 3100 3101 3101 3101 3102 3102 3103 3104 3105 3106 3107 3107 3108 3109 3110 3111 3112 3113 3114 3114 3114 3115 3116 3117 3118 3118 3118 3118 3118 3119 3119
3043 3045 3048 3049 3047 3046 3047 3049 3052 3054 3056 3058 3058 3059 3063 3067 3070 3074 3077 3078 3082 3082 3081 3084 3075 3061 3064 3073 3073 3076 3079 3080 3083 3085 3086 3088 3089 3090 3091 3091 3093 3094 3094 3094 3094 3095 3096 3096 3096 3096 3096 3096 3096 3097 3097 3097 3097 3097 3098 3098 3099 3099 3100 3101 3101 3102 3102 3103 3104 3104 3105 3106 3107 3108 3108 3109 3110 3111 3112 3112 3113 3113 3112 3113 3113 3113
3041 3042 3044 3047 3047 3046 3045 3046 3049 3051 3054 3055 3057 3059 3062 3064 3066 3070 3073 3075 3078 3078 3078 3083 3075 3059 3059 3068 3070 3071 3074 3076 3078 3081 3083 3085 3085 3087 3089 3089 3090 3091 3091 3092 3092 3092 3093 3093 3094 3093 3093 3093 3093 3093 3093 3093 3093 3094 3094 3095 3095 3096 3096 3096 3097 3097 3097 3098 3099 3100 3100 3101 3102 3102 3103 3104 3105 3106 3107 3107 3107 3107 3107 3108 3108 3108
3037 3038 3040 3044 3045 3045 3045 3045 3045 3046 3048 3049 3052 3056 3058 3061 3066 3069 3071 3073 3072 3070 3072 3077 3071 3057 3056 3063 3065 3068 3070 3072 3074 3077 3080 3082 3082 3084 3086 3087 3088 3088 3088 3089 3088 3089 3090 3090 3091 3091 3090 3090 3090 3090 3090 3090 3090 3090 3091 3091 3091 3092 3092 3092 3093 3093 3093 3094 3095 3096 3097 3097 3098 3098 3099 3100 3101 3101 3102 3102 3102 3102 3102 3103 3103 3103
3032 3033 3035 3037 3037 3037 3037 3036 3034 3035 3039 3042 3047 3050 3053 3056 3059 3060 3064 3065 3063 3062 3066 3067 3062 3054 3055 3059 3060 3063 3066 3068 3071 3073 3075 3078 3080 3081 3082 3084 3085 3086 3085 3085 3085 3086 3087 3087 3087 3087 3087 3087 3086 3086 3086 3087 3087 3087 3087 3087 3088 3088 3088 3089 3089 3090 3090 3091 3092 3092 3093 3093 3094 3094 3095 3096 3096 3097 3097 3097 3097 3098 3098 3098 3097 3097
3027 3027 3029 3030 3029 3028 3027 3027 3028 3029 3032 3036 3040 3044 3046 3049 3051 3055 3058 3057 3056 3059 3060 3059 3058 3054 3051 3054 3056 3058 3062 3065 3068 3070 3072 3075 3077 3077 3078 3079 3081 3082 3082 3082 3083 3083 3083 3083 3083 3083 3083 3083 3083 3083 3083 3083 3083 3083 3083 3084 3084 3085 3085 3086 3086 3087 3087 3088 3088 3089 3089 3090 3090 3090 3091 3091 3092 3092 3092 3092 3093 3092 3092 3092 3092 3092
3021 3021 3023 3025 3026 3027 3027 3027 3029 3030 3031 3032 3034 3036 3040 3044 3049 3052 3051 3049 3054 3057 3053 3054 3058 3051 3044 3046 3052 3054 3057 3061 3063 3065 3068 3070 3072 3073 3074 3074 3076 3077 3078 3080 3081 3081 3080 3079 3079 3078 3079 3079 3079 3080 3080 3080 3080 3080 3080 3080 3081 3082 3082 3083 3083 3084 3084 3085 3085 3086 3086 3086 3087 3087 3088 3088 3088 3088 3088 3088 3088 3088 3087 3087 3087 3086
3016 3016 3018 3020 3021 3023 3025 3026 3028 3030 3030 3031 3031 3033 3036 3040 3044 3045 3044 3046 3050 3050 3047 3049 3053 3047 3039 3040 3046 3050 3053 3056 3058 3061 3063 3065 3066 3067 3068 3069 3071 3073 3075 3078 3078 3077 3076 3075 3075 3074 3075 3075 3076 3076 3076 3076 3076 3077 3077 3077 3078 3078 3079 3080 3080 3081 3081 3082 3082 3082 3083 3083 3084 3084 3084 3084 3084 3084 3084 3084 3084 3083 3083 3082 3082 3082
3011 3012 3014 3016 3017 3018 3022 3023 3025 3027 3028 3029 3030 3032 3034 3036 3038 3039 3040 3043 3046 3047 3047 3047 3047 3042 3035 3034 3041 3047 3049 3051 3054 3056 3058 3059 3060 3062 3062 3064 3066 3068 3071 3073 3074 3073 3073 3072 3071 3071 3071 3072 3072 3072 3072 3073 3073 3074 3074 3074 3075 3075 3076 3076 3077 3077 3078 3078 3079 3079 3079 3080 3080 3080 3080 3081 3081 3081 3081 3080 3080 3079 3079 3078 3078 3077
3007 3008 3011 3014 3014 3013 3017 3020 3021 3022 3023 3024 3025 3028 3031 3033 3036 3038 3039 3041 3043 3044 3042 3041 3040 3034 3028 3030 3039 3043 3044 3046 3048 3049 3052 3054 3055 3056 3057 3059 3061 3064 3066 3068 3068 3069 3069 3068 3068 3068 3068 3068 3068 3068 3069 3069 3070 3071 3071 3071 3072 3072 3073 3073 3074 3074 3075 3075 3075 3076 3076 3076 3077 3077 3077 3077 3077 3077 3077 3077 3076 3076 3075 3075 3074 3073
3003 3004 3007 3010 3009 3007 3010 3015 3016 3018 3020 3020 3020 3023 3026 3028 3029 3030 3030 3031 3032 3033 3034 3036 3034 3026 3021 3027 3035 3037 3038 3040 3040 3042 3046 3049 3050 3051 3052 3053 3055 3058 3060 3062 3063 3063 3064 3064 3064 3064 3064 3064 3064 3064 3065 3066 3067 3067 3067 3068 3069 3069 3070 3071 3071 3072 3072 3072 3073 3073 3073 3073 3074 3074 3074 3074 3075 3074 3074 3074 3073 3072 3072 3071 3070 3070
2999 3000 3002 3005 3004 3002 3004 3008 3012 3016 3016 3011 3009 3012 3015 3016 3018 3021 3022 3023 3026 3028 3030 3029 3024 3018 3019 3024 3029 3031 3032 3033 3034 3037 3041 3044 3046 3047 3046 3047 3050 3052 3054 3056 3057 3058 3059 3059 3060 3060 3060 3060 3060 3061 3062 3062 3063 3064 3064 3065 3065 3066 3067 3068 3068 3069 3069 3069 3070 3070 3071 3071 3071 3071 3072 3072 3072 3071 3071 3071 3070 3070 3069 3068 3067 3067
2995 2997 2999 3001 3000 2998 3000 3005 3009 3009 3001 2995 2996 3001 3004 3008 3012 3017 3017 3017 3021 3024 3023 3021 3016 3015 3020 3023 3023 3024 3027 3029 3031 3034 3037 3038 3040 3041 3042 3042 3044 3046 3049 3050 3051 3052 3054 3055 3055 3055 3055 3056 3056 3057 3057 3058 3059 3060 3061 3062 3062 3063 3064 3065 3065 3066 3066 3066 3067 3067 3067 3068 3068 3068 3069 3069 3069 3069 3068 3068 3068 3067 3066 3065 3065 3064
2993 2995 2997 2998 2997 2997 2998 3002 3002 2994 2988 2989 2993 2997 3002 3007 3011 3014 3013 3013 3016 3017 3015 3015 3010 3010 3017 3020 3019 3021 3022 3024 3027 3028 3030 3032 3033 3035 3036 3037 3039 3041 3042 3044 3045 3047 3048 3049 3050 3050 3051 3052 3053 3053 3053 3053 3054 3056 3057 3058 3059 3060 3060 3061 3062 3062 3063 3063 3063 3064 3064 3064 3065 3065 3066 3066 3066 3066 3065 3065 3065 3064 3063 3063 3062 3061
2991 2993 2994 2995 2995 2995 2995 2994 2990 2986 2986 2990 2990 2993 3002 3008 3010 3013 3010 3005 3005 3007 3008 3010 3007 3007 3014 3015 3014 3016 3019 3020 3022 3020 3021 3025 3027 3029 3031 3032 3034 3036 3036 3038 3040 3041 3043 3044 3044 3046 3046 3047 3048 3048 3048 3049 3049 3050 3052 3054 3055 3056 3057 3058 3058 3059 3059 3059 3060 3060 3060 3061 3062 3062 3063 3063 3063 3063 3062 3062 3062 3061 3061 3060 3059 3059
2989 2990 2992 2993 2993 2992 2991 2989 2986 2986 2986 2986 2984 2988 2994 2995 2996 3000 2996 2990 2993 3002 3007 3008 3004 3003 3006 3007 3008 3014 3017 3018 3014 3006 3008 3017 3021 3022 3025 3027 3030 3031 3031 3033 3035 3036 3038 3039 3039 3041 3041 3041 3042 3043 3044 3044 3044 3045 3047 3049 3051 3052 3053 3054 3055 3055 3056 3056 3056 3056 3057 3058 3058 3059 3059 3059 3059 3059 3059 3059 3059 3058 3058 3057 3057 3057
2985 2987 2989 2991 2990 2989 2989 2988 2986 2984 2981 2980 2982 2983 2985 2987 2990 2995 2994 2987 2990 3000 3004 3001 2997 2996 2999 3003 3006 3011 3016 3015 3001 2989 2995 3009 3015 3016 3020 3023 3026 3028 3028 3030 3031 3031 3033 3034 3035 3036 3036 3036 3037 3038 3038 3039 3039 3041 3042 3044 3046 3047 3048 3050 3051 3051 3052 3052 3052 3052 3053 3054 3054 3055 3055 3055 3055 3055 3055 3055 3055 3055 3055 3054 3054 3054
2981 2982 2984 2987 2986 2986 2987 2985 2982 2980 2977 2978 2981 2981 2983 2987 2991 2999 3000 2986 2980 2990 2996 2994 2991 2990 2993 2998 3003 3009 3013 3005 2988 2979 2988 3002 3010 3014 3017 3018 3021 3024 3025 3026 3027 3027 3028 3029 3030 3031 3031 3031 3032 3032 3033 3034 3036 3037 3037 3039 3040 3042 3043 3044 3045 3046 3047 3047 3047 3048 3049 3050 3050 3051 3051 3051 3051 3051 3051 3051 3051 3051 3051 3051 3050 3050
2977 2978 2980 2982 2982 2983 2985 2983 2980 2978 2976 2977 2979 2979 2982 2985 2989 2998 2997 2976 2965 2978 2989 2988 2985 2985 2990 2997 3001 3003 3000 2990 2979 2980 2989 2998 3006 3011 3012 3014 3017 3019 3021 3022 3023 3024 3025 3025 3025 3026 3026 3026 3027 3028 3029 3030 3031 3033 3033 3034 3035 3037 3038 3039 3039 3040 3041 3041 3042 3043 3044 3045 3046 3046 3047 3047 3047 3047 3047 3047 3047 3047 3047 3047 3046 3046
2972 2973 2974 2976 2977 2979 2981 2980 2977 2975 2972 2974 2977 2977 2979 2983 2985 2987 2980 2965 2961 2973 2983 2984 2984 2984 2990 2995 2995 2991 2987 2983 2983 2986 2989 2994 3000 3004 3005 3008 3012 3013 3015 3016 3018 3019 3020 3020 3021 3021 3021 3022 3023 3024 3025 3026 3027 3029 3030 3030 3032 3033 3033 3033 3034 3034 3035 3036 3037 3038 3039 3040 3041 3042 3042 3043 3043 3043 3043 3043 3043 3043 3043 3043 3043 3043
2968 2969 2970 2971 2973 2974 2976 2977 2976 2971 2966 2969 2973 2974 2975 2977 2975 2971 2968 2966 2967 2972 2978 2981 2982 2983 2987 2989 2987 2984 2981 2983 2986 2986 2985 2988 2993 2996 2998 3002 3004 3006 3008 3010 3011 3013 3014 3015 3016 3016 3016 3017 3018 3020 3021 3022 3023 3024 3025 3027 3028 3028 3028 3028 3029 3029 3030 3030 3032 3033 3035 3036 3037 3038 3038 3038 3038 3038 3038 3038 3038 3039 3039 3039 3039 3039
2963 2964 2964 2965 2968 2970 2971 2972 2971 2966 2961 2964 2969 2969 2966 2966 2966 2966 2967 2970 2971 2971 2974 2977 2978 2980 2983 2984 2982 2979 2978 2981 2983 2982 2980 2983 2987 2989 2992 2994 2997 2999 3001 3003 3005 3007 3008 3009 3010 3010 3011 3013 3014 3016 3017 3018 3018 3020 3021 3023 3024 3023 3023 3023 3024 3024 3025 3025 3027 3029 3030 3032 3033 3033 3034 3034 3034 3034 3034 3034 3034 3034 3035 3035 3035 3035
2958 2959 2959 2960 2962 2963 2962 2962 2962 2960 2959 2959 2961 2960 2958 2960 2964 2967 2967 2968 2969 2969 2971 2973 2975 2977 2979 2978 2977 2975 2975 2977 2978 2978 2977 2979 2982 2984 2985 2987 2990 2992 2994 2997 2999 3001 3002 3003 3003 3005 3007 3008 3010 3011 3012 3013 3014 3015 3017 3018 3018 3018 3018 3019 3019 3020 3020 3021 3022 3024 3026 3027 3028 3029 3029 3029 3029 3029 3030 3030 3030 3030 3030 3031 3031 3031
2950 2952 2955 2956 2955 2954 2953 2954 2957 2958 2957 2955 2954 2956 2958 2960 2963 2965 2965 2964 2965 2966 2967 2969 2971 2973 2975 2974 2973 2971 2970 2971 2973 2973 2973 2975 2978 2980 2980 2981 2983 2986 2988 2991 2993 2995 2996 2997 2998 3000 3002 3004 3005 3006 3007 3008 3009 3011 3012 3013 3013 3014 3014 3015 3015 3016 3016 3017 3018 3019 3021 3022 3023 3024 3024 3025 3025 3025 3025 3025 3026 3026 3026 3026 3026 3026
2946 2949 2950 2950 2950 2949 2948 2950 2953 2953 2951 2950 2950 2953 2956 2958 2959 2960 2960 2959 2960 2962 2964 2966 2967 2970 2971 2971 2969 2967 2967 2968 2968 2968 2968 2969 2972 2974 2975 2975 2977 2979 2982 2985 2987 2989 2991 2992 2993 2995 2997 2999 3000 3001 3002 3003 3004 3006 3007 3008 3008 3010 3010 3011 3011 3012 3012 3013 3013 3015 3016 3017 3019 3019 3020 3020 3020 3021 3021 3021 3021 3021 3021 3022 3022 3022
2943 2945 2945 2944 2945 2944 2942 2944 2948 2948 2945 2945 2946 2948 2952 2954 2954 2954 2955 2954 2956 2958 2961 2962 2964 2966 2968 2967 2965 2963 2963 2964 2964 2963 2963 2963 2965 2967 2969 2970 2971 2974 2977 2980 2982 2984 2986 2987 2989 2991 2992 2994 2995 2996 2997 2998 2999 3001 3002 3003 3004 3005 3006 3006 3007 3008 3008 3009 3010 3011 3012 3013 3014 3015 3016 3016 3016 3016 3017 3017 3017 3017 3017 3018 3018 3018
2939 2940 2938 2938 2938 2936 2936 2940 2943 2942 2939 2940 2941 2943 2945 2948 2949 2950 2950 2950 2952 2954 2956 2959 2961 2962 2963 2963 2962 2960 2960 2960 2960 2960 2959 2959 2960 2963 2965 2966 2967 2969 2972 2975 2977 2979 2980 2982 2984 2985 2987 2988 2990 2991 2993 2994 2995 2996 2997 2998 2999 3000 3001 3002 3003 3004 3004 3005 3006 3007 3009 3010 3011 3012 3012 3012 3013 3013 3013 3013 3013 3013 3013 3013 3013 3013
2935 2933 2931 2932 2932 2930 2931 2935 2938 2936 2933 2932 2934 2935 2937 2940 2942 2944 2945 2946 2948 2950 2952 2954 2956 2957 2958 2959 2958 2957 2957 2956 2956 2957 2957 2957 2959 2961 2963 2964 2965 2966 2968 2971 2972 2974 2976 2977 2979 2980 2982 2983 2985 2986 2988 2989 2990 2991 2992 2993 2995 2996 2997 2998 2999 3000 3001 3001 3002 3003 3004 3006 3007 3008 3009 3009 3009 3009 3009 3009 3009 3009 3009 3009 3009 3009
2928 2926 2927 2928 2926 2923 2925 2928 2932 2932 2926 2923 2926 2929 2931 2933 2936 2938 2941 2943 2944 2946 2947 2948 2950 2953 2954 2954 2954 2954 2954 2954 2954 2955 2955 2956 2957 2959 2961 2962 2963 2964 2966 2967 2968 2970 2971 2972 2974 2975 2977 2978 2980 2982 2983 2985 2986 2987 2988 2989 2990 2991 2993 2994 2995 2996 2996 2997 2997 2998 3000 3001 3003 3004 3005 3005 3005 3005 3005 3005 3005 3005 3005 3005 3005 3005
2918 2919 2921 2920 2917 2917 2920 2921 2924 2925 2920 2917 2922 2927 2926 2928 2932 2935 2938 2939 2939 2941 2942 2943 2945 2948 2950 2950 2951 2951 2950 2951 2952 2952 2952 2953 2955 2956 2957 2959 2960 2962 2963 2964 2964 2965 2966 2968 2969 2971 2972 2974 2975 2977 2979 2980 2982 2983 2984 2985 2986 2987 2989 2990 2991 2991 2992 2992 2993 2994 2995 2997 2999 3000 3001 3001 3001 3001 3002 3001 3002 3002 3002 3002 3002 3002